Location: Tierz
(42.1336°N, 0.3549°W)
Time: 06:37:58
(UTC+00:00)

In-Cosmos 22 Rocket - Pass Details

Date: 29 October 2020
Orbit: 790 x 888 km, 81.2° (Epoch: 26 November)

Event Time Altitude Azimuth Distance (km) Brightness Sun altitude
Rises 17:33:38 0° 356° (N) 3,313 7.2 -7.1°
Reaches altitude 10° 17:36:07 10° 2° (N) 2,388 6.4 -7.6°
Maximum altitude 17:41:17 46° 76° (ENE) 1,089 4.4 -8.5°
Drops below altitude 10° 17:46:32 10° 149° (SSE) 2,426 6.4 -9.5°
Sets 17:49:03 0° 155° (SSE) 3,371 7.2 -9.9°
